Tracking 19906 objects as of 24-Oct-2019
HD Live streaming from Space Station
objects crossing your sky now

COSMOS 1375 DEB

Track COSMOS 1375 DEB now!
10-day predictions


NORAD ID: 17804
Int'l Code: 1982-055AW
Perigee: 902.4 km
Apogee: 927.0 km
Inclination: 65.8 °
Period: 103.1 minutes
Semi major axis: 7285 km
RCS: 0.0158 m2 (small)
Launch date: June 6, 1982
Source: Commonwealth of Independent States (former USSR) (CIS)
Launch site: PLESETSK MISSILE AND SPACE COMPLEX (PKMTR)

Note: This is SATELLITE DEBRIS
aabbcc
Your satellite tracking list
Your tracking list is empty




NASA's NSSDC Master Catalog

Two Line Element Set (TLE):
1 17804U 82055AW  19296.95070275 +.00000379 +00000-0 +33802-3 0  9990
2 17804 065.8178 123.2979 0016877 334.3221 174.8003 13.96038449717800
Source of the keplerian elements: AFSPC